Regional Weather Roundup
Issued by NWS Northern Indiana

Home | Current Version | Previous Version | Text Only | Print | Product List | Glossary Off
Versions: 1 2 3 4 5 6 7 8 9 10 11 12 13 14 15 16 17 18 19 20 21 22 23 24 25 26 27 28 29 30 31 32 33 34 35 36 37 38 39 40 41 42 43 44 45 46 47 48 49 50

619
ASUS43 KIWX 210101
RWRIWX

KIWX WEATHER ROUNDUP
NATIONAL WEATHER SERVICE NORTHERN INDIANA
900 PM EDT WED SEP 20 2017

NOTE: "FAIR" INDICATES FEW OR NO CLOUDS BELOW 12,000 FEET WITH NO
SIGNIFICANT WEATHER AND/OR OBSTRUCTIONS TO VISIBILITY.

* THESE STATIONS ARE NOT UNDER NWS QUALITY CONTROL. THEY ALSO MAY NOT
  REPORT WEATHER SUCH AS PRECIPITATION OR FOG.

INZ001>027-210200-
NORTHERN INDIANA

CITY           SKY/WX    TMP DP  RH WIND       PRES   REMARKS
GARY*          PTCLDY    84  64  51 SE6       29.88S
SOUTH BEND     CLEAR     79  68  69 S8        29.93S
ELKHART*       CLEAR     77  68  73 CALM      29.94S
GOSHEN         CLEAR     77  68  73 SE7       29.94S
FORT WAYNE     CLEAR     75  67  76 SE6       29.98R

$$
INZ028>050-210200-
CENTRAL INDIANA

CITY           SKY/WX    TMP DP  RH WIND       PRES   REMARKS
LAFAYETTE      CLEAR     80  68  66 S3        29.93R
KOKOMO*        CLEAR     75  69  81 SE8       29.96F
MUNCIE*        CLEAR     80  69  69 S7        29.99R
INDIANAPOLIS   PTCLDY    81  69  67 S8        29.97S

$$
MIZ043>046-050>051-056>058-064>065-071>073-077>080-210200-
SOUTHWEST LOWER MICHIGAN

CITY           SKY/WX    TMP DP  RH WIND       PRES   REMARKS
BATTLE CREEK   CLEAR     78  69  73 SE8       29.96S
BENTON HARBOR  CLEAR     78  67  68 SE6       29.90S
COLDWATER*     CLEAR     73  71  94 SE3       29.97S
HILLSDALE*     MOCLDY    72  66  83 SE5       29.99R
HOLLAND        CLEAR     78  67  68 SE8       29.91S
GRAND RAPIDS   PTCLDY    76  68  76 SE8       29.92S
KALAMAZOO      CLEAR     78  67  68 SE5       29.94S
STURGIS*       CLEAR     76  69  78 E6        29.96R
THREE RIVERS*  FAIR      79  69  71 SE5       29.95R

$$
OHZ001>008-015>018-024>025-210200-
NORTHWEST OHIO

CITY           SKY/WX    TMP DP  RH WIND       PRES   REMARKS
DEFIANCE       CLEAR     71  68  90 SE3       29.98R
FINDLAY        CLEAR     74  65  73 SE6       29.99R
TOLEDO EXPRESS CLEAR     72  70  93 E3        29.99R
TOLEDO METCALF CLEAR     72  67  84 E6        30.00R
LIMA           CLEAR     74  66  76 S5        30.01R

$$
AND FOR LAKE MICHIGAN COASTAL AND OPEN LAKE BUOY OBSERVATIONS

STATION/POSITION TEMP    WIND        PRES    VSBY  WAVE
                 AIR SEA DIR/SP/G                  HT/PER
                 (F)     (DEG/KT/KT) (MB)    (MI)  (FT/S)
CALUMET HARBOR    86     160/  8/ 11 1010.7F
MICHIGAN CITY     82     140/  7/  8   N/A
BURNS HARBOR      83     170/  7/ 11 1012.2S
SAINT JOSEPH      82      CALM  /  3 1012.5
SOUTH LAKE BUOY   74 69  140/ 14/ 16 1010.8          1/ 3
4 MI NW BRIDGMAN  75 69  170/  8/  8 1011.9R         1
MICHIGAN CITY     77 69  160/  8/  8   N/A           1

$$
&&




USA.gov is the U.S. government's official web portal to all federal, state and local government web resources and services.